Location: Sungai Anya
(2.6167°N, 114.0500°E)
Time: 18:15:21
(UTC+00:00)

Okean 1-7 Rocket - Pass Details

Date: 19 October 2021
Orbit: 617 x 648 km, 82.5° (Epoch: 07 December)

Event Time Altitude Azimuth Distance (km) Brightness Sun altitude
Rises 11:24:14 0° 3° (N) 2,894 6.9 -19.0°
Reaches altitude 10° 11:26:28 10° 7° (N) 1,994 6.0 -19.6°
Maximum altitude 11:30:50 59° 86° (E) 727 3.5 -20.7°
Drops below altitude 10° 11:35:15 10° 166° (SSE) 2,021 6.1 -21.7°
Sets 11:37:31 0° 170° (S) 2,936 7.0 -22.3°
